User: anonymous   Login
Location: Waldport
(44.4270°N, 124.0680°W)
Time: 23:55:58
(UTC-07:00)
Language:

Cosmos 1023 Rocket - Orbit

View from above orbital plane
View from above orbital plane
View from above satellite
View from above satellite

Ground track
Ground track

The orbit data is extracted from the following two-line orbital elements,

1 10962U 78063B   18113.17141342 +.00000050 +00000-0 +23429-4 0  9998
2 10962 074.0816 006.6521 0025552 191.7432 168.3131 14.41125260090347
Epoch (UTC): 23 April 2018 04:06:50
Eccentricity: 0.0025552
inclination: 74.0816°
perigee height: 736 km
apogee height: 773 km
right ascension of ascending node: 6.6521°
argument of perigee: 191.7432°
revolutions per day: 14.41125260
mean anomaly at epoch: 168.3131°
orbit number at epoch: 9034

The dashed part of the orbit path shows where the satellite is in the earth's shadow,  

DLR